MEASAT-3A

Last updated on Thu Nov 21 2024 00:02:41 GMT+0000 (Coordinated Universal Time)

1 35362U 09032A 24325.63802350 -.00000110 00000+0 00000+0 0 9997 2 35362 0.0169 324.6370 0002792 277.2684 207.8748 1.00270330 2282
UTC large
Height (km)
Speed (km/s)
/
Latitude / Longitude
Inclination (degrees)
Orbital Period (minutes)
Azimuth
Elevation
Range (km)
Doppler Factor

Next 0 passes for location: London (51.5072 / 0.1276)

Sorry there are no passes over London.